Hourly Weather Roundup
Issued by NWS Central Illinois

Home | Current Version | Previous Version | Text Only | Print | Product List | Glossary On
Versions: 1 2 3 4 5 6 7 8 9 10 11 12 13 14 15 16 17 18 19 20 21 22 23 24 25 26 27 28 29 30 31 32 33 34 35 36 37 38 39 40 41 42 43 44 45 46 47 48 49 50
000
NZUS43 KILX 240110
HWRILX

AREA WEATHER ROUNDUP
NATIONAL WEATHER SERVICE, LINCOLN IL
800 PM CDT TUE SEP 23 2014


CITY           SKY/WX    TMP DP  RH WIND       PRES   REMARKS
BLOOMINGTON    MOCLDY    61  49  64 SE7       30.28R
CHAMPAIGN      MOCLDY    61  49  64 NE6       30.27S
DECATUR        MOCLDY    61  49  64 SE6       30.26S
FLORA          CLEAR     63  49  61 NE5       30.26R
GALESBURG      CLOUDY   N/A N/A N/A CALM      30.23S
JACKSONVILLE   PTCLDY    65  53  65 SE6       30.25R
LACON          MOCLDY    58  52  81 CALM      30.25S
LAWRENCEVILLE  CLEAR     57  51  80 NE6       30.26R
LITCHFIELD     MOCLDY    60  51  72 E3        30.25R
$$


CITY           SKY/WX    TMP DP  RH WIND       PRES   REMARKS
LINCOLN        MOCLDY    62  50  65 CALM      30.23S
MACOMB         CLOUDY    59  52  76 CALM      30.25R
MATTOON        MOCLDY    60  50  69 SE5       30.26R
MT CARMEL AP   CLEAR     63  50  63 CALM      30.25S
OLNEY-NOBLE AP PTCLDY    59  50  72 CALM      30.26R
PARIS          PTCLDY    54  52  94 CALM      30.28R
PEORIA         MOCLDY    65  53  65 E5        30.25R
PONTIAC        MOCLDY    61  50  67 E5        30.27R
RANTOUL        PTCLDY    62  50  65 E5        30.29R
ROBINSON       CLEAR     60  52  74 CALM      30.27S
SPRINGFIELD    MOCLDY    64  53  67 SE3       30.25R
TAYLORVILLE    MOCLDY    59  52  77 SE3       30.25S
$$

...REGIONAL REPORTS...


CITY           SKY/WX    TMP DP  RH WIND       PRES   REMARKS
CHICAGO O`HARE PTCLDY    65  48  54 E8        30.29R
KANKAKEE       CLEAR     58  51  77 CALM      30.29R
MOLINE         CLOUDY    60  50  69 SE5       30.23S
MOUNT VERNON   PTCLDY    54  48  82 CALM      30.25R
PITTSFIELD     MOCLDY    62  53  72 CALM      30.24S
QUINCY         MOCLDY    63  52  67 SE6       30.21F
ROCKFORD       MOCLDY    62  50  64 SE5       30.29R
$$


CITY           SKY/WX    TMP DP  RH WIND       PRES   REMARKS
BURLINGTON     MOCLDY    60  52  74 SE5       30.22R
CEDAR RAPIDS   MOCLDY    59  52  77 SE5       30.20F
DES MOINES     CLOUDY    67  53  61 SE9       30.16S
KIRKSVILLE     CLOUDY    61  51  70 SE6       30.21S
OTTUMWA        CLOUDY    61  52  72 SE7       30.19S
ST LOUIS       CLOUDY    67  50  54 E7        30.23S
$$


CITY           SKY/WX    TMP DP  RH WIND       PRES   REMARKS
TERRE HAUTE    CLEAR     54  49  83 CALM      30.28R
EVANSVILLE     CLEAR     63  50  62 N3        30.25R
INDIANAPOLIS   PTCLDY    64  47  53 NE5       30.27R
LAFAYETTE      CLEAR     56  51  84 CALM      30.29R
MADISON        MOCLDY    59  52  77 CALM      30.26R
MILWAUKEE      PTCLDY    60  47  61 S6        30.29R
$$




USA.gov is the U.S. government's official web portal to all federal, state and local government web resources and services.